This demonstration page uses our WeatherBlox Daily Observations layout. Learn more.

Left ArrowRight Arrow

44.89941, -97.11507

Hourly Observations for July 16, 2016

Temp ( °F °C ) Dew Point ( °F °C ) Humidity (%) Winds ( mph kmh ) Pressure ( in mb ) Visibility ( mi km ) Precip ( " mm )
12:53 am 00:53 Clear 61 16.1 53 11.7 75 75 SSE 3 6 30.06 1018 10 16 0.00 0.00
1:53 am 01:53 Clear 59 15 52 11.1 78 78 Calm 30.06 1018 10 16 0.00 0.00
2:53 am 02:53 Clear 58 14.4 51 10.6 78 78 SSE 5 7 30.05 1018 10 16 0.00 0.00
3:53 am 03:53 Clear 57 13.9 52 11.1 83 83 S 6 9 30.04 1017 10 16 0.00 0.00
4:53 am 04:53 Clear 57 13.9 52 11.1 83 83 SSE 5 7 30.04 1017 10 16 0.00 0.00
5:53 am 05:53 Clear 56 13.3 52 11.1 87 87 S 3 6 30.04 1017 10 16 0.00 0.00
6:53 am 06:53 Sunny 57 13.9 53 11.7 87 87 SSE 9 15 30.04 1017 10 16 0.00 0.00
7:53 am 07:53 Sunny 61 16.1 56 13.3 84 84 S 9 15 30.04 1017 10 16 0.00 0.00
8:53 am 08:53 Sunny 66 18.9 58 14.4 75 75 S 13 20 30.03 1017 10 16 0.00 0.00
9:53 am 09:53 Sunny 70 21.1 59 15 68 68 SSE 10 17 30.00 1016 10 16 0.00 0.00
10:53 am 10:53 Sunny 72 22.2 58 14.4 61 61 S 12 19 29.98 1015 10 16 0.00 0.00
11:53 am 11:53 Sunny 75 23.9 58 14.4 55 55 SSE 15 24 29.96 1014 10 16 0.00 0.00
12:53 pm 12:53 Sunny 77 25 58 14.4 52 52 SSE 16 26 29.91 1013 10 16 0.00 0.00
1:53 pm 13:53 Sunny 79 26.1 57 13.9 47 47 SSE 18 30 29.89 1012 10 16 0.00 0.00
2:53 pm 14:53 Sunny 77 25 58 14.4 52 52 S 16 26 29.87 1012 10 16 0.00 0.00
3:53 pm 15:53 Mostly Sunny 78 25.6 61 16.1 56 56 SSE 20 31 29.83 1010 10 16 0.00 0.00
4:53 pm 16:53 Mostly Cloudy 77 25 63 17.2 62 62 SSE 20 31 29.82 1010 10 16 0.00 0.00
5:11 pm 17:11 Mostly Cloudy with Nearby Thunderstorms 77 25 64 17.8 64 64 S 7 11 29.80 1009 10 16 0.00 0.00
5:40 pm 17:40 Cloudy 77 25 64 17.8 64 64 SSE 7 11 29.77 1008 10 16 0.00 0.00
5:53 pm 17:53 Cloudy 76 24.4 64 17.8 67 67 SSE 8 13 29.85 1011 10 16 0.00 0.00
6:17 pm 18:17 Cloudy with Nearby Thunderstorms 77 25 64 17.8 64 64 SSE 9 15 29.77 1008 10 16 0.00 0.00
6:32 pm 18:32 Mostly Cloudy 77 25 65 18.3 66 66 SE 7 11 29.77 1008 10 16 0.00 0.00
6:53 pm 18:53 Cloudy 77 25 64 17.8 64 64 SSE 12 19 29.82 1010 10 16 0.00 0.00
7:53 pm 19:53 Mostly Cloudy 70 21.1 63 17.2 79 79 E 16 26 29.80 1009 10 16 0.00 0.00
8:08 pm 20:08 Mostly Cloudy with Nearby Thunderstorms 68 20 62 16.7 81 81 E 17 28 29.77 1008 10 16 0.00 0.00
8:25 pm 20:25 Cloudy with Thunderstorms 66 18.9 61 16.1 84 84 E 13 20 29.80 1009 10 16 0.00 0.03
8:37 pm 20:37 Mostly Cloudy with Thunderstorms 66 18.9 61 16.1 84 84 ESE 9 15 29.80 1009 10 16 0.00 0.03
8:53 pm 20:53 Cloudy with Thunderstorms 65 18.3 62 16.7 90 90 SSE 17 28 29.77 1008 4 6 0.07 1.78
9:05 pm 21:05 Cloudy with Strong Thunderstorms 65 18.3 62 16.7 90 90 SSE 21 33 29.74 1007 3 4 0.07 1.78
9:14 pm 21:14 Cloudy with Thunderstorms 65 18.3 62 16.7 90 90 SE 14 22 29.74 1007 5 8 0.09 2.29
9:36 pm 21:36 Mostly Clear with Nearby Thunderstorms 67 19.4 63 17.2 87 87 SSE 13 20 29.74 1007 10 16 0.10 2.54
9:53 pm 21:53 Clear with Nearby Thunderstorms 68 20 64 17.8 87 87 S 13 20 29.79 1009 10 16 0.10 2.54
10:12 pm 22:12 Clear 70 21.1 65 18.3 84 84 S 14 22 29.77 1008 10 16 0.00 0.00
10:53 pm 22:53 Mostly Cloudy 68 20 65 18.3 90 90 ESE 6 9 29.79 1009 10 16 0.00 0.00
11:53 pm 23:53 Cloudy with Light Rain 69 20.6 66 18.9 90 90 E 3 6 29.76 1008 9 14 0.02 0.51

Powered by AerisWeather